Stations météo

Publicité
Cassley, Grande-Bretagne (99003): Température de l'air & dewpoint: 21.05.2019 04:00:00 - 27.05.2019 04:00:00 (BST)Cassley, Grande-Bretagne (99003): Quantités de précipitations: 21.05.2019 04:00:00 - 27.05.2019 04:00:00 (BST)
Date & Time tt [°C] td [°C] rr [mm]
27.05.2019 04:00:00 5,9 4,1 0,0
27.05.2019 03:00:00 6,1 4,4 0,0
27.05.2019 02:00:00 6,3 4,3 0,0
27.05.2019 01:00:00 6,2 4,0 0,0
27.05.2019 00:00:00 6,1 4,4 0,0
26.05.2019 23:00:00 5,5 4,0 0,2
26.05.2019 22:00:00 6,0 4,7 0,6
26.05.2019 21:00:00 6,2 4,6 0,6
26.05.2019 20:00:00 6,9 5,5 0,4
26.05.2019 19:00:00 7,7 6,3 3,0
26.05.2019 18:00:00 8,8 7,7 4,2
26.05.2019 17:00:00 9,2 8,5 3,2
26.05.2019 16:00:00 9,1 8,3 4,2
26.05.2019 15:00:00 8,7 7,9 4,0
26.05.2019 14:00:00 8,2 7,4 1,6
26.05.2019 13:00:00 8,1 7,5 2,2
26.05.2019 12:00:00 7,5 6,8 2,6
26.05.2019 11:00:00 7,1 6,1 0,6
26.05.2019 10:00:00 6,6 5,6 1,0
26.05.2019 09:00:00 6,4 5,5 1,8
26.05.2019 08:00:00 6,4 5,5 1,0
26.05.2019 07:00:00 6,4 5,6 2,6
26.05.2019 06:00:00 6,5 5,8 3,0
26.05.2019 05:00:00 6,1 5,4 1,8
26.05.2019 04:00:00 6,1 5,3 1,8
26.05.2019 03:00:00 6,3 5,6 1,2
26.05.2019 02:00:00 6,3 5,6 0,8
26.05.2019 01:00:00 6,4 5,6 0,6
26.05.2019 00:00:00 6,8 5,6 0,0
25.05.2019 23:00:00 6,9 5,8 0,0
25.05.2019 22:00:00 7,2 6,2 0,0
25.05.2019 21:00:00 7,7 6,3 0,0
25.05.2019 20:00:00 8,2 6,4 0,0
25.05.2019 19:00:00 9,0 7,1 0,0
25.05.2019 18:00:00 10,0 6,9 0,0
25.05.2019 17:00:00 10,0 6,9 0,2
25.05.2019 16:00:00 9,6 6,4 0,4
25.05.2019 15:00:00 9,5 5,7 0,0
25.05.2019 14:00:00 9,3 5,3 0,0
25.05.2019 13:00:00 9,3 6,0 0,4
25.05.2019 12:00:00 8,7 5,7 0,2
25.05.2019 11:00:00 8,8 5,0 0,0
25.05.2019 10:00:00 8,8 3,9 0,0
25.05.2019 09:00:00 8,3 4,3 0,0
25.05.2019 08:00:00 7,8 4,0 0,0
25.05.2019 07:00:00 7,6 4,3 0,0
25.05.2019 06:00:00 7,2 3,9 0,0
25.05.2019 05:00:00 7,2 3,7 0,0
25.05.2019 04:00:00 7,2 3,2 0,0
25.05.2019 03:00:00 7,3 3,1 0,0
25.05.2019 02:00:00 7,8 3,5 0,0
25.05.2019 01:00:00 7,9 4,7 0,0
25.05.2019 00:00:00 8,1 4,8 0,0
24.05.2019 23:00:00 7,9 5,3 0,0
24.05.2019 22:00:00 8,3 5,3 0,0
24.05.2019 21:00:00 8,8 6,4 0,0
24.05.2019 20:00:00 9,2 6,5 0,0
24.05.2019 19:00:00 9,3 7,2 0,0
24.05.2019 18:00:00 9,2 7,5 0,0
24.05.2019 17:00:00 8,7 7,2 0,2
24.05.2019 16:00:00 9,5 7,4 0,0
24.05.2019 15:00:00 9,7 6,2 0,0
24.05.2019 14:00:00 10,3 5,3 0,0
24.05.2019 13:00:00 9,5 5,8 0,0
24.05.2019 12:00:00 9,9 4,2 0,0
24.05.2019 11:00:00 10,6 5,6 0,0
24.05.2019 10:00:00 8,8 5,8 0,0
24.05.2019 09:00:00 8,2 5,2 0,0
24.05.2019 08:00:00 8,0 4,6 0,0
24.05.2019 07:00:00 7,9 4,4 0,0
24.05.2019 06:00:00 7,7 4,7 0,0
24.05.2019 05:00:00 7,6 5,0 0,0
24.05.2019 04:00:00 7,4 5,3 0,0
24.05.2019 03:00:00 7,5 5,8 0,0
24.05.2019 02:00:00 7,7 6,4 0,0
24.05.2019 01:00:00 8,0 6,7 0,0
24.05.2019 00:00:00 8,1 6,6 0,0
23.05.2019 23:00:00 8,2 7,1 0,0
23.05.2019 22:00:00 8,3 7,2 0,4
23.05.2019 21:00:00 8,5 7,3 0,2
23.05.2019 20:00:00 8,4 7,3 0,6
23.05.2019 19:00:00 8,3 7,1 0,4
23.05.2019 18:00:00 8,9 7,3 0,0
23.05.2019 17:00:00 9,1 7,4 0,4
23.05.2019 16:00:00 9,2 7,5 0,6
23.05.2019 15:00:00 9,1 7,6 1,2
23.05.2019 14:00:00 9,1 7,3 0,6
23.05.2019 13:00:00 9,2 7,6 1,0
23.05.2019 12:00:00 8,9 7,4 0,6
23.05.2019 11:00:00 8,8 7,4 1,0
23.05.2019 10:00:00 8,5 7,1 0,6
23.05.2019 09:00:00 7,9 6,6 0,4
23.05.2019 08:00:00 7,9 6,2 0,2
23.05.2019 07:00:00 8,1 6,6 0,2
23.05.2019 06:00:00 8,1 6,5 0,2
23.05.2019 05:00:00 8,2 6,9 0,6
23.05.2019 04:00:00 8,2 6,9 0,6
23.05.2019 03:00:00 8,5 7,4 0,8
23.05.2019 02:00:00 8,8 7,6 0,6
23.05.2019 01:00:00 8,9 7,5 0,6
23.05.2019 00:00:00 8,6 7,5 0,6
22.05.2019 23:00:00 8,5 7,5 0,6
22.05.2019 22:00:00 8,6 7,2 0,2
22.05.2019 21:00:00 8,8 7,6 0,4
22.05.2019 20:00:00 9,2 8,0 0,2
22.05.2019 19:00:00 9,4 7,9 0,2
22.05.2019 18:00:00 9,7 8,4 0,2
22.05.2019 17:00:00 9,9 8,3 0,0
22.05.2019 16:00:00 10,1 8,8 0,2
22.05.2019 15:00:00 9,4 8,0 0,4
22.05.2019 14:00:00 10,4 9,0 0,0
22.05.2019 13:00:00 9,8 8,4 0,2
22.05.2019 12:00:00 10,8 8,5 0,0
22.05.2019 11:00:00 10,0 8,4 0,4
22.05.2019 10:00:00 9,6 8,3 0,2
22.05.2019 09:00:00 10,0 8,9 0,0
22.05.2019 08:00:00 9,7 8,2 0,0
22.05.2019 07:00:00 9,5 7,8 0,0
22.05.2019 06:00:00 9,6 8,0 0,0
22.05.2019 05:00:00 9,6 8,5 0,4
22.05.2019 04:00:00 9,1 8,0 0,0
22.05.2019 03:00:00 8,5 7,5 0,2
22.05.2019 02:00:00 8,3 7,1 0,0
22.05.2019 01:00:00 8,5 6,3 0,0
22.05.2019 00:00:00 8,1 6,2 0,0
21.05.2019 23:00:00 8,0 6,3 0,0
21.05.2019 22:00:00 8,0 6,1 0,0
21.05.2019 21:00:00 8,1 6,3 0,0
21.05.2019 20:00:00 8,8 6,5 0,0
21.05.2019 19:00:00 11,0 5,2 0,0
21.05.2019 18:00:00 11,6 4,9 0,0
21.05.2019 17:00:00 11,8 4,7 0,0
21.05.2019 16:00:00 11,7 4,6 0,0
21.05.2019 15:00:00 11,9 5,1 0,0
21.05.2019 14:00:00 13,3 6,1 0,0
21.05.2019 13:00:00 12,8 4,4 0,0
21.05.2019 12:00:00 12,4 5,1 0,0
21.05.2019 11:00:00 12,4 6,7 0,0
21.05.2019 10:00:00 9,3 6,7 0,0
21.05.2019 09:00:00 8,8 6,4 0,0
21.05.2019 08:00:00 9,5 6,5 0,0
21.05.2019 07:00:00 8,7 6,6 0,0
21.05.2019 06:00:00 8,7 7,0 0,0
21.05.2019 05:00:00 8,2 6,7 0,0
21.05.2019 04:00:00 8,7 6,7 0,0

tt = Température de l'air
td = dewpoint
rr = Quantités de précipitations

stations d'obs. à proximité